Home   Weather   36°04'N, 95°52'W   Past weeks
Flag for USA

Past Weather in 36°04'N, 95°52'W, USA — Yesterday and Last 2 Weeks

Now
79 °F

Overcast.


Feels Like: 81 °F
Forecast: 85 / 70 °F
Wind: 6 mph from Southeast

Location: Tulsa International Airport

Current Time: May 25, 2019 at 10:14:49 pm

Latest Report: May 25, 2019 at 8:53 pm


Visibility: 10 mi

Pressure: 29.95 "Hg

Humidity: 69%

Dew Point: 68 °F

Location of 36°04'N, 95°52'WLocation

Past Weather in 36°04'N, 95°52'W — Graph

°F

36°04'N, 95°52'W Temperature Yesterday

Maximum temperature yesterday: 87 °F (at 2:53 pm)
Minimum temperature yesterday: 69 °F (at 10:53 pm)
Average temperature yesterday: 80 °F

High & Low Weather Summary for the Past Weeks

 TemperatureHumidityPressure
High89 °F (May 15, 3:53 pm)100% (May 19, 2:53 am)30.06 "Hg (May 19, 2:53 am)
Low51 °F (May 13, 4:53 am)32% (May 14, 4:53 pm)29.44 "Hg (May 21, 4:53 pm)
Average70 °F75%29.82 "Hg
* Reported May 10 8:53 pm — May 25 8:53 pm, 36°04'N, 95°52'W. Weather by CustomWeather, © 2019

Note: Actual official high and low records may vary slightly from our data, if they occured in-between our weather recording intervals... More about our weather records

Advertising

36°04'N, 95°52'W Weather History for the Previous 24 Hours

Scroll right to see more
 ConditionsComfort  
Time TempWeatherWind HumidityBarometerVisibility
8:53 pm
Sat, May 25
79 °FOvercast.6 mph69%29.95 "Hg10 mi
7:53 pm81 °FHigh level clouds.9 mph62%29.93 "Hg10 mi
6:53 pm82 °FOvercast.17 mph63%29.91 "Hg10 mi
5:53 pm85 °FOvercast.17 mph57%29.91 "Hg10 mi
4:53 pm84 °FScattered clouds.15 mph61%29.94 "Hg10 mi
3:53 pm84 °FPartly sunny.15 mph61%29.96 "Hg10 mi
2:53 pm84 °FPartly sunny.13 mph63%29.98 "Hg10 mi
1:53 pm84 °FBroken clouds.15 mph61%29.99 "Hg10 mi
12:53 pm82 °FOvercast.16 mph63%30.01 "Hg10 mi
11:53 am80 °FBroken clouds.12 mph69%30.02 "Hg10 mi
10:53 am79 °FBroken clouds.16 mph72%30.02 "Hg10 mi
10:41 am80 °FPartly sunny.18 mph71%30.04 "Hg10 mi
10:05 am78 °FBroken clouds.14 mph79%30.03 "Hg10 mi
9:53 am77 °FPartly sunny.13 mph79%30.01 "Hg10 mi
8:53 am73 °FScattered clouds.8 mph88%29.99 "Hg10 mi
7:53 am68 °FBroken clouds.6 mph96%29.98 "Hg10 mi
6:53 am67 °FPartly sunny.3 mph100%29.97 "Hg10 mi
6:31 am67 °FBroken clouds.3 mph97%29.99 "Hg10 mi
5:53 am68 °FLow clouds.7 mph93%29.96 "Hg10 mi
4:53 am67 °FMostly cloudy.7 mph97%29.94 "Hg10 mi
3:53 am67 °FLow clouds.14 mph97%29.90 "Hg10 mi
2:58 am66 °FMostly cloudy.18 mph100%29.85 "Hg10 mi
2:18 am67 °FLight rain. Mostly cloudy.No wind93%29.98 "Hg10 mi
2:01 am67 °FThundershowers. Overcast.No wind93%30.00 "Hg8 mi
1:33 am67 °FStrong thunderstorms. Fog.15 mph97%30.02 "Hg1 mi
1:12 am68 °FThunderstorms. Mostly cloudy.9 mph93%30.02 "Hg7 mi
12:53 am68 °FLight rain. Overcast.3 mph90%29.97 "Hg10 mi
12:21 am67 °FLight rain. Fog.6 mph97%30.01 "Hg5 mi
12:12 am68 °FHeavy rain. Fog.12 mph90%30.02 "Hg2 mi
11:53 pm
Fri, May 24
69 °FLight rain. Overcast.12 mph90%30.00 "Hg10 mi
10:53 pm69 °FLight rain. Mostly cloudy.12 mph87%29.98 "Hg10 mi
Weather by CustomWeather, © 2019

See weather overview